Waarnemingen

Advertentie
Mijn weer
F3, Nederland (6239): temperatuur & dauwpunt: 19.06.2017 05:00:00 - 25.06.2017 05:00:00 (CEST)F3, Nederland (6239): windsnelheid & windstoten: 19.06.2017 05:00:00 - 25.06.2017 05:00:00 (CEST)F3, Nederland (6239): windrichting: 19.06.2017 05:00:00 - 25.06.2017 05:00:00 (CEST)F3, Nederland (6239): luchtdruk: 19.06.2017 05:00:00 - 25.06.2017 05:00:00 (CEST)F3, Nederland (6239): zicht: 19.06.2017 05:00:00 - 25.06.2017 05:00:00 (CEST)
Datum & Tijd tt [°C] td [°C] ff [km/u] ff [kn] fx [km/u] fx [kn] dd ppp [hPa] vv [km]
25.06.2017 05:00:00 14,7 10,4 37 20 43 23 W 1004,9 10
25.06.2017 04:00:00 15,1 10,5 44 24 43 23 W 1005,1 10
25.06.2017 03:00:00 15,3 11,3 39 21 40 21 W 1005,2 10
25.06.2017 02:00:00 15,3 12,6 42 23 43 23 WZW 1005,7 10
25.06.2017 01:00:00 15,5 12,2 46 25 43 23 WZW 1006,2 10
25.06.2017 00:00:00 15,3 12,5 44 24 43 23 ZW 1006,6 10
24.06.2017 23:00:00 15,2 13,1 41 22 43 23 ZW 1007,0 10
24.06.2017 22:00:00 15,0 13,1 41 22 40 21 ZW 1007,2 10
24.06.2017 21:00:00 14,8 12,3 35 19 40 21 ZW 1007,4 10
24.06.2017 20:00:00 14,7 12,4 35 19 36 19 ZW 1007,8 10
24.06.2017 19:00:00 14,5 11,7 35 19 36 19 ZW 1008,3 10
24.06.2017 18:00:00 14,7 10,3 37 20 40 21 WZW 1008,8 10
24.06.2017 17:00:00 14,5 9,4 44 24 47 25 W 1009,1 10
24.06.2017 16:00:00 14,5 8,4 46 25 50 27 W 1009,0 10
24.06.2017 15:00:00 14,3 8,5 50 27 50 27 W 1009,0 10
24.06.2017 14:00:00 14,3 8,0 46 25 50 27 W 1008,8 10
24.06.2017 13:00:00 14,1 7,3 52 28 50 27 W 1008,5 10
24.06.2017 12:00:00 14,3 10,1 41 22 43 23 W 1008,0 10
24.06.2017 11:00:00 14,3 11,1 37 20 40 21 W 1007,6 10
24.06.2017 10:00:00 13,8 12,5 37 20 36 19 W 1007,5 10
24.06.2017 09:00:00 13,3 12,7 39 21 36 19 W 1007,4 4,4
24.06.2017 08:00:00 14,1 12,6 28 15 29 16 W 1007,1 10
24.06.2017 07:00:00 14,3 14,0 29 16 47 25 W 1007,1 6
24.06.2017 06:00:00 15,5 14,2 46 25 47 25 WZW 1007,1 10
24.06.2017 05:00:00 15,5 14,2 42 23 43 23 WZW 1007,5 10
24.06.2017 04:00:00 15,1 14,5 41 22 40 21 WZW 1008,1 5
24.06.2017 03:00:00 15,5 14,2 42 23 43 23 WZW 1008,5 10
24.06.2017 02:00:00 15,5 14,0 39 21 40 21 WZW 1008,9 10
24.06.2017 01:00:00 15,5 13,9 39 21 40 21 WZW 1009,3 10
24.06.2017 00:00:00 15,6 13,9 41 22 43 23 WZW 1009,7 10
23.06.2017 23:00:00 15,6 13,9 44 24 43 23 WZW 1010,0 10
23.06.2017 22:00:00 15,7 13,7 44 24 47 25 WZW 1010,0 10
23.06.2017 21:00:00 15,6 13,7 40 21 47 25 WZW 1010,0 15
23.06.2017 20:00:00 15,4 13,7 42 23 47 25 WZW 1009,9 10
23.06.2017 19:00:00 15,3 13,4 46 25 47 25 WZW 1010,2 10
23.06.2017 18:00:00 15,0 13,4 44 24 47 25 WZW 1010,3 10
23.06.2017 17:00:00 15,0 13,0 46 25 47 25 WZW 1010,1 10
23.06.2017 16:00:00 14,9 13,0 46 25 47 25 WZW 1010,1 10
23.06.2017 15:00:00 14,9 12,9 44 24 43 23 WZW 1010,3 10
23.06.2017 14:00:00 15,0 13,1 41 22 40 21 WZW 1010,1 10
23.06.2017 13:00:00 14,9 12,6 37 20 40 21 WZW 1010,0 10
23.06.2017 12:00:00 14,8 12,5 41 22 40 21 WZW 1010,1 10
23.06.2017 11:00:00 14,7 13,0 29 16 32 18 WZW 1009,8 10
23.06.2017 10:00:00 14,7 13,1 29 16 32 18 WZW 1010,3 10
23.06.2017 09:00:00 14,3 13,5 31 17 29 16 WZW 1009,8 10
23.06.2017 08:00:00 14,3 13,2 28 15 32 18 W 1009,2 10
23.06.2017 07:00:00 14,3 13,0 35 19 32 18 W 1009,1 10
23.06.2017 06:00:00 14,3 12,9 34 18 36 19 W 1009,0 10
23.06.2017 05:00:00 14,3 12,6 41 22 43 23 WNW 1008,8 10
23.06.2017 04:00:00 14,6 12,7 41 22 43 23 WNW 1008,2 10
23.06.2017 03:00:00 14,9 13,4 46 25 50 27 WNW 1008,1 10
23.06.2017 02:00:00 14,8 13,9 50 27 50 27 WNW 1007,5 10
23.06.2017 01:00:00 14,7 14,5 52 28 50 27 WNW 1007,2 2,6
23.06.2017 00:00:00 14,8 14,7 44 24 43 23 WNW 1006,5 0,6
22.06.2017 23:00:00 14,8 14,8 44 24 43 23 WNW 1005,8 1,9
22.06.2017 22:00:00 14,9 14,9 42 23 43 23 WNW 1005,2 0,2
22.06.2017 21:00:00 15,2 15,1 34 18 32 18 WNW 1004,8 0,1
22.06.2017 20:00:00 15,0 15,0 34 18 36 19 W 1004,6 0,2
22.06.2017 19:00:00 14,9 14,8 37 20 36 19 WZW 1004,7 0,3
22.06.2017 18:00:00 15,5 14,9 34 18 36 19 W 1004,1 5
22.06.2017 17:00:00 15,7 15,0 37 20 40 21 W 1004,3 4,9
22.06.2017 16:00:00 15,8 15,3 42 23 40 21 WZW 1004,7 4,3
22.06.2017 15:00:00 16,0 15,3 37 20 36 19 WZW 1005,0 3,9
22.06.2017 14:00:00 16,2 15,3 39 21 43 23 ZW 1004,9 5
22.06.2017 13:00:00 16,5 14,9 50 27 50 27 ZZO 1004,9 10
22.06.2017 12:00:00 16,8 14,5 48 26 72 39 ZZO 1005,2 9
22.06.2017 11:00:00 16,5 14,3 52 28 50 27 ZO 1005,4 10
22.06.2017 10:00:00 15,9 14,6 52 28 47 25 OZO 1005,9 10
22.06.2017 09:00:00 15,4 14,6 41 22 43 23 O 1006,6 7
22.06.2017 08:00:00 14,7 14,5 28 15 65 35 - 1007,8 1,4
22.06.2017 07:00:00 16,6 14,1 39 21 50 27 ZO 1006,2 10
22.06.2017 06:00:00 16,2 14,4 46 25 50 27 ZO 1007,0 9
22.06.2017 05:00:00 15,7 14,2 52 28 54 29 ZO 1009,7 7
22.06.2017 04:00:00 15,4 13,8 42 23 43 23 ZO 1009,9 10
22.06.2017 03:00:00 15,2 13,2 36 19 40 21 ZO 1011,0 24
22.06.2017 02:00:00 15,2 12,9 35 19 32 18 ZO 1012,3 10
22.06.2017 01:00:00 15,1 12,5 34 18 32 18 ZO 1013,2 10
22.06.2017 00:00:00 15,0 12,3 34 18 32 18 OZO 1013,6 10
21.06.2017 23:00:00 14,9 11,9 29 16 29 16 OZO 1014,4 10
21.06.2017 22:00:00 14,8 11,5 29 16 29 16 ZO 1014,7 10
21.06.2017 21:00:00 14,7 11,2 28 15 29 16 ZO 1015,5 10
21.06.2017 20:00:00 14,7 10,6 28 15 29 16 ZO 1015,8 10
21.06.2017 19:00:00 13,3 10,2 22 12 25 14 OZO 1016,0 10
21.06.2017 18:00:00 12,6 9,8 9 5 18 10 Z 1017,4 2,4
21.06.2017 17:00:00 14,3 9,9 11 6 32 18 ZO 1018,3 10
21.06.2017 16:00:00 14,1 9,3 13 7 18 10 ZO 1018,3 10
21.06.2017 15:00:00 14,5 9,1 11 6 18 10 ZZO 1019,3 10
21.06.2017 14:00:00 14,2 9,2 14 8 18 10 ZO 1019,0 30
21.06.2017 13:00:00 14,1 9,2 9 5 14 8 OZO 1019,8 10
21.06.2017 12:00:00 13,8 8,9 8 4 11 6 OZO 1020,2 10
21.06.2017 11:00:00 13,9 8,6 4 2 7 4 - 1020,7 10
21.06.2017 10:00:00 13,8 9,0 4 2 7 4 - 1020,8 10
21.06.2017 09:00:00 13,5 8,9 5 3 7 4 NO 1021,1 10
21.06.2017 08:00:00 13,4 8,8 5 3 7 4 NO 1020,9 10
21.06.2017 07:00:00 13,5 8,6 4 2 11 6 - 1020,8 10
21.06.2017 06:00:00 13,4 8,7 5 3 7 4 - 1020,9 10
21.06.2017 05:00:00 13,2 8,9 5 3 11 6 - 1020,8 10
21.06.2017 04:00:00 13,3 8,5 9 5 14 8 NNW 1021,3 10
21.06.2017 03:00:00 13,3 8,8 5 3 14 8 - 1021,5 10
21.06.2017 02:00:00 13,4 8,6 5 3 14 8 - 1022,2 10
21.06.2017 01:00:00 13,6 9,0 8 4 18 10 N 1022,0 10
21.06.2017 00:00:00 13,7 8,7 11 6 18 10 - 1022,2 10
20.06.2017 23:00:00 13,9 9,2 5 3 14 8 - 1022,2 10
20.06.2017 22:00:00 14,1 9,5 13 7 18 10 NNW 1022,4 10
20.06.2017 21:00:00 14,3 9,4 13 7 18 10 NNW 1022,2 10
20.06.2017 20:00:00 14,2 9,0 13 7 18 10 N 1022,3 10
20.06.2017 19:00:00 14,3 9,2 11 6 18 10 - 1022,4 10
20.06.2017 18:00:00 14,2 9,0 15 8 14 8 NNW 1022,6 10
20.06.2017 17:00:00 14,1 8,9 11 6 29 16 NNW 1022,8 10
20.06.2017 16:00:00 14,3 7,7 9 5 14 8 - 1022,8 10
20.06.2017 15:00:00 14,2 8,3 9 5 18 10 - 1022,7 10
20.06.2017 14:00:00 14,0 8,0 15 8 18 10 NNO 1022,6 10
20.06.2017 13:00:00 14,1 7,3 16 9 25 14 NNO 1022,6 10
20.06.2017 12:00:00 14,2 8,8 22 12 25 14 NNO 1022,5 10
20.06.2017 11:00:00 13,9 9,4 24 13 29 16 NNO 1021,9 10
20.06.2017 10:00:00 13,8 9,9 28 15 29 16 NNO 1021,3 10
20.06.2017 09:00:00 13,7 11,0 28 15 29 16 NNO 1020,9 10
20.06.2017 08:00:00 13,8 10,7 28 15 29 16 NNO 1020,0 10
20.06.2017 07:00:00 14,0 11,5 26 14 36 19 NNO 1019,8 10
20.06.2017 06:00:00 14,1 11,9 29 16 32 18 NNO 1019,7 10
20.06.2017 05:00:00 14,0 11,5 28 15 29 16 NNO 1019,2 10
20.06.2017 04:00:00 14,5 13,0 16 9 32 18 - 1019,2 10
20.06.2017 03:00:00 14,2 13,9 16 9 29 16 - 1019,3 2,9
20.06.2017 02:00:00 14,3 14,2 15 8 29 16 - 1019,1 1,4
20.06.2017 01:00:00 15,8 14,6 11 6 22 12 - 1018,8 10
20.06.2017 00:00:00 16,1 14,5 21 11 22 12 NNW 1018,6 10
19.06.2017 23:00:00 16,3 14,9 18 10 22 12 NW 1018,4 10
19.06.2017 22:00:00 16,8 15,1 18 10 18 10 WNW 1018,4 10
19.06.2017 21:00:00 17,0 15,5 21 11 22 12 W 1018,2 10
19.06.2017 20:00:00 17,4 15,7 22 12 22 12 W 1018,3 10
19.06.2017 19:00:00 18,4 15,8 26 14 25 14 WZW 1018,3 10
19.06.2017 18:00:00 18,2 15,8 26 14 32 18 WZW 1018,7 10
19.06.2017 17:00:00 18,5 15,4 29 16 32 18 ZW 1018,8 10
19.06.2017 16:00:00 18,0 15,7 29 16 25 14 ZW 1019,2 10
19.06.2017 15:00:00 17,6 15,5 26 14 25 14 ZW 1019,5 10
19.06.2017 14:00:00 17,4 15,3 26 14 22 12 ZW 1020,0 10
19.06.2017 13:00:00 16,9 14,8 28 15 25 14 ZW 1020,7 10
19.06.2017 12:00:00 16,9 14,5 26 14 25 14 ZW 1020,6 10
19.06.2017 11:00:00 16,6 14,2 22 12 22 12 ZW 1020,8 10
19.06.2017 10:00:00 16,2 14,2 22 12 29 16 ZW 1021,1 10
19.06.2017 09:00:00 15,9 14,3 21 11 22 12 ZW 1021,4 10
19.06.2017 08:00:00 15,9 14,5 22 12 22 12 ZW 1021,6 10
19.06.2017 07:00:00 15,9 14,7 21 11 18 10 ZW 1021,6 10
19.06.2017 06:00:00 15,7 14,7 15 8 18 10 ZW 1021,7 9
19.06.2017 05:00:00 15,6 14,7 22 12 22 12 ZZW 1021,7 8

tt = temperatuur
td = dauwpunt
ff = windsnelheid
fx = windstoten
dd = windrichting
ppp = luchtdruk
vv = zicht

Weerstations in de omgeving